Regional Weather Roundup
Issued by NWS Huntsville, AL

Home | Current Version | Previous Version | Text Only | Print | Product List | Glossary On
Versions: 1 2 3 4 5 6 7 8 9 10 11 12 13 14 15 16 17 18 19 20 21 22 23 24 25 26 27 28 29 30 31 32 33 34 35 36 37 38 39 40 41 42 43 44 45 46 47 48 49 50
000
ASUS44 KHUN 010910
RWRHUN

WEATHER ROUNDUP FOR THE TENNESSEE VALLEY
NATIONAL WEATHER SERVICE HUNTSVILLE AL
300 AM CST SUN MAR 01 2015

ALZ001>004-011000-
NORTHWEST ALABAMA

CITY           SKY/WX    TMP DP  RH WIND       PRES   REMARKS
COURTLAND HCN    N/A     50 N/A N/A SE5         N/A
RUSSELLVILLE     N/A     50 N/A N/A MISG        N/A
SHOALS AIRPORT CLOUDY    48  37  65 E7        30.34F
SHOALS TVA RES   N/A     48 N/A N/A MISG        N/A
$$

ALZ005>007-016-011000-
NORTH CENTRAL ALABAMA

CITY           SKY/WX    TMP DP  RH WIND       PRES   REMARKS
CULLMAN AG STN   N/A     48 N/A N/A SE7         N/A
DECATUR AP     CLOUDY    48  38  68 SE13      30.36F
HUNTSVILLE AP  MOCLDY    48  37  65 SE8       30.37S
HUN NWS/UAH      N/A     47  34  60 SE10        N/A
MERIDIANVILLE  MOCLDY    45  30  57 SE7       30.37F
REDSTONE ARSN  PTCLDY    47  36  65 S13       30.36F
VINEMONT AP    CLOUDY    47  41  79 S7        30.38F
$$

ALZ008>010-011000-
NORTHEAST ALABAMA

CITY           SKY/WX    TMP DP  RH WIND       PRES   REMARKS
ALBERTVILLE    MOCLDY    43  37  81 SE9       30.37F
FORT PAYNE     CLOUDY    43  30  61 CALM      30.40F
SCOTTSBORO AP  CLOUDY    46  32  57 S6        30.41F
SCOTTSBORO HCN   N/A     45 N/A N/A MISG        N/A
VALLEY HEAD      N/A     41 N/A N/A MISG        N/A
$$

TNZ076-096-097-011000-
SOUTHEASTERN MIDDLE TENNESSEE

CITY           SKY/WX    TMP DP  RH WIND       PRES   REMARKS
TULLAHOMA      MOCLDY    43  30  61 SE8       30.36F
WINCHESTER     MOCLDY    43  34  70 SE13      30.37F
$$

...SURROUNDING SITES...

CITY           SKY/WX    TMP DP  RH WIND       PRES   REMARKS
ATLANTA        CLOUDY    38  34  85 E15       30.48F WCI  29
ANNISTON       CLOUDY    48  37  65 E9        30.42F
BIRMINGHAM     CLOUDY    50  43  77 SE8       30.40F
CHATTANOOGA    CLOUDY    43  29  57 S7        30.44F
CORINTH        CLOUDY    41  36  81 CALM      30.34F
DALTON         CLOUDY    41  32  70 S6        30.45F
GADSDEN        CLOUDY    46  36  66 SE10      30.39F
GOLDEN TRNGL   CLOUDY    52  45  76 S16       30.32S
HALEYVILLE       N/A     48  44  86 S9        30.34F
JACKSON TN     CLOUDY    39  25  57 N5        30.34F
LEWISBURG      CLOUDY    47  32  56 S8        30.35F
MEMPHIS        CLOUDY    37  25  61 NE7       30.32F WCI  32
MURFREESBORO   MOCLDY    46  32  58 CALM      30.36F
NASHVILLE      MOCLDY    41  30  65 CALM      30.36S
OXFORD MS      FAIR      39  32  75 CALM      30.34S
ROME           CLOUDY    42  31  64 SE10G17   30.45F
SAVANNAH       CLOUDY    39  34  81 CALM      30.34F
TUPELO         CLOUDY    44  37  76 CALM      30.34F
TUSCALOOSA     CLOUDY    52  45  77 E8        30.37F
$$

...GULF COAST WEATHER...

CITY           SKY/WX    TMP DP  RH WIND       PRES   REMARKS
GULFPORT       CLOUDY    55  52  89 E13       30.31F
PASCAGOULA     CLOUDY    52  51  97 E9        30.34F FOG
MOBILE         CLOUDY    49  49 100 E9        30.35F FOG
GULF SHORES    CLOUDY    49  49  97 E8        30.35F FOG
PENSACOLA      CLOUDY    50  48  93 E12       30.35F FOG
DESTIN         CLOUDY    50  48  93 VRB6      30.38R
PANAMA CITY    CLOUDY    49  48  94 NE8       30.35
APPALACHICOLA  CLOUDY    52  48  86 NE12      30.35F
$$




USA.gov is the U.S. government's official web portal to all federal, state and local government web resources and services.